Location: Dana
(41.8364°N, 106.7042°W)
Time: 20:10:03
(UTC+00:00)

Injun/Solrad 3 - Pass Details

Date: 16 May 2026
Orbit: 867 x 989 km, 66.8° (Epoch: 6 June)

Event Time Altitude Azimuth Distance (km) Brightness Sun altitude
Rises 00:11:59 0° 255° (WSW) 3,536 12.1 22.0°
Reaches altitude 10° 00:15:07 10° 271° (W) 2,620 12.4 21.4°
Maximum altitude 00:19:39 21° 320° (NW) 1,972 10.6 20.5°
Drops below altitude 10° 00:24:18 10° 8° (N) 2,692 10.4 19.7°
Sets 00:27:35 0° 24° (NNE) 3,661 10.9 19.1°
